Retour au catalogue

STARLINK-32230

ActifCommunicationsVLEO
NORAD 60366·PAYLOAD·🇺🇸 United States

Lancé Aug 4, 2024 depuis Vandenberg Space Force Base

Loading…

Prochains Passages (prochaines 24 heures)

TLE

FraisSource: CelesTrak SupGP

Époque: Sep 14, 2026, 21:10 UTC

1 60366C 24138M   26257.88243056 -.00045213  00000+0 -13356-2 0  2570
2 60366  53.1570 149.9590 0001191  89.6292 358.5794 15.34417876    17

Suivez STARLINK-32230 en temps réel avec AllMySat

Download on the App Store